• In Hungary
  • List of Countries
  • For 7 days
  • Water Temperature
  • Satellite Maps
  • Weather Map
  • News
  • Weather Widgets
  • user-avatar
    Login

    Hourly Weather Zavbuch

    Today, 21 January, Sunday

    Time Temperature Precipitation Wind Pressure Humidity
    00:00 0°C° 0.3 mm 1 mps 729 mmHg 100%
    01:00 -2°C° 0.4 mm 2 mps 729 mmHg 100%
    02:00 0°C° 0.3 mm 1 mps 729 mmHg 100%
    03:00 -2°C° 0 mm 2 mps 728 mmHg 98%
    04:00 -2°C° 0 mm 2 mps 728 mmHg 99%
    05:00 -2°C° 0 mm 2 mps 728 mmHg 100%
    06:00 -2°C° 0.1 mm 2 mps 728 mmHg 100%
    07:00 -2°C° 0.3 mm 3 mps 728 mmHg 100%
    08:00 -2°C° 0.2 mm 3 mps 728 mmHg 99%
    09:00 -3°C° 0 mm 4 mps 727 mmHg 97%
    10:00 -4°C° 0 mm 5 mps 727 mmHg 92%
    11:00 -2°C° 0 mm 5 mps 727 mmHg 86%
    12:00 -1°C° 0 mm 5 mps 726 mmHg 82%
    13:00 0°C° 0 mm 5 mps 726 mmHg 80%
    14:00 0°C° 0 mm 4 mps 725 mmHg 78%
    15:00 +1°C° 0 mm 3 mps 725 mmHg 78%
    16:00 0°C° 0.1 mm 3 mps 725 mmHg 90%
    17:00 -2°C° 0.3 mm 4 mps 725 mmHg 95%
    18:00 -2°C° 0.7 mm 4 mps 725 mmHg 97%
    19:00 -2°C° 0.9 mm 4 mps 725 mmHg 97%
    20:00 -1°C° 0.9 mm 3 mps 725 mmHg 96%
    21:00 -1°C° 0.7 mm 3 mps 725 mmHg 95%
    22:00 -1°C° 0.5 mm 3 mps 725 mmHg 94%
    23:00 -1°C° 0.4 mm 3 mps 725 mmHg 93%

    Tomorrow, 22 January, Monday

    Time Temperature Precipitation Wind Pressure Humidity
    00:00 -1°C° 0.1 mm 3 mps 725 mmHg 91%
    01:00 -2°C° 0 mm 2 mps 725 mmHg 88%
    02:00 -2°C° 0 mm 2 mps 726 mmHg 86%
    03:00 -3°C° 0 mm 2 mps 726 mmHg 86%
    04:00 -4°C° 0 mm 2 mps 726 mmHg 87%
    05:00 -4°C° 0 mm 2 mps 726 mmHg 83%
    06:00 -5°C° 0 mm 4 mps 726 mmHg 82%
    07:00 -6°C° 0 mm 3 mps 727 mmHg 82%
    08:00 -5°C° 0 mm 3 mps 728 mmHg 82%
    09:00 -5°C° 0 mm 4 mps 728 mmHg 82%
    10:00 -4°C° 0 mm 3 mps 729 mmHg 85%
    11:00 -2°C° 0 mm 3 mps 729 mmHg 88%
    12:00 -1°C° 0 mm 2 mps 730 mmHg 85%
    13:00 -1°C° 0 mm 3 mps 730 mmHg 83%
    14:00 -1°C° 0 mm 3 mps 730 mmHg 82%
    15:00 -1°C° 0 mm 2 mps 731 mmHg 82%
    16:00 -1°C° 0 mm 2 mps 731 mmHg 84%
    17:00 -4°C° 0 mm 3 mps 731 mmHg 86%
    18:00 -5°C° 0 mm 3 mps 732 mmHg 85%
    19:00 -4°C° 0 mm 2 mps 732 mmHg 83%
    20:00 -5°C° 0 mm 2 mps 733 mmHg 83%
    21:00 -5°C° 0 mm 2 mps 734 mmHg 83%
    22:00 -5°C° 0 mm 2 mps 734 mmHg 82%
    23:00 -6°C° 0 mm 2 mps 735 mmHg 82%

    Day after tomorrow, 23 January, Tuesday

    Time Temperature Precipitation Wind Pressure Humidity
    00:00 -6°C° 0 mm 2 mps 735 mmHg 81%
    01:00 -6°C° 0 mm 2 mps 735 mmHg 81%
    02:00 -6°C° 0 mm 2 mps 736 mmHg 80%
    03:00 -6°C° 0 mm 2 mps 736 mmHg 80%
    04:00 -6°C° 0 mm 2 mps 736 mmHg 80%
    05:00 -6°C° 0 mm 2 mps 737 mmHg 80%
    06:00 -7°C° 0 mm 2 mps 737 mmHg 80%
    07:00 -7°C° 0 mm 2 mps 738 mmHg 78%
    08:00 -7°C° 0 mm 2 mps 739 mmHg 77%
    09:00 -7°C° 0 mm 3 mps 739 mmHg 75%
    10:00 -7°C° 0 mm 3 mps 740 mmHg 77%
    11:00 -4°C° 0 mm 2 mps 740 mmHg 81%
    12:00 -3°C° 0 mm 2 mps 741 mmHg 82%
    13:00 -2°C° 0 mm 2 mps 741 mmHg 83%
    14:00 -1°C° 0 mm 2 mps 742 mmHg 83%
    15:00 -1°C° 0 mm 2 mps 742 mmHg 86%
    16:00 -2°C° 0 mm 2 mps 742 mmHg 88%
    17:00 -3°C° 0 mm 2 mps 742 mmHg 82%
    18:00 -4°C° 0 mm 2 mps 743 mmHg 74%
    19:00 -5°C° 0 mm 2 mps 743 mmHg 65%
    20:00 -5°C° 0 mm 2 mps 744 mmHg 55%
    21:00 -5°C° 0 mm 2 mps 744 mmHg 47%
    22:00 -5°C° 0 mm 2 mps 745 mmHg 41%
    23:00 -3°C° 0 mm 1 mps 745 mmHg 41%

    24 January, Wednesday

    Time Temperature Precipitation Wind Pressure Humidity
    00:00 -3°C° 0 mm 1 mps 746 mmHg 41%
    01:00 -4°C° 0 mm 1 mps 746 mmHg 43%
    02:00 -6°C° 0 mm 2 mps 746 mmHg 48%
    03:00 -6°C° 0 mm 2 mps 746 mmHg 51%
    04:00 -7°C° 0 mm 2 mps 746 mmHg 62%
    05:00 -7°C° 0 mm 2 mps 746 mmHg 67%
    06:00 -7°C° 0 mm 2 mps 746 mmHg 69%
    07:00 -7°C° 0 mm 2 mps 747 mmHg 68%
    08:00 -8°C° 0 mm 2 mps 747 mmHg 66%
    09:00 -8°C° 0 mm 2 mps 747 mmHg 64%
    10:00 -7°C° 0 mm 2 mps 747 mmHg 62%
    11:00 -4°C° 0 mm 1 mps 748 mmHg 71%
    12:00 -3°C° 0 mm 1 mps 748 mmHg 79%
    13:00 -2°C° 0 mm 1 mps 748 mmHg 76%
    14:00 -1°C° 0 mm 1 mps 748 mmHg 76%

    25 January, Thursday

    Time Temperature Precipitation Wind Pressure Humidity

    26 January, Friday

    Time Temperature Precipitation Wind Pressure Humidity
    Show more